OH2TI Weather Reports


time (UTC)temp
C
wind
direction
speed
KPH
gust
KPH
rain 1hr
cm
rain 24hr
cm
rain mn
cm
humidity
%
barometer
mb
20260508115606 13 339 12.9 17.7 0.00 0.00 0.00 22 1022.9
20260508114128 13 333 9.7 19.3 0.00 0.00 0.00 23 1022.9
20260508112951 13 1 8.0 12.9 0.00 0.00 0.00 25 1023.1
20260508111813 13 335 9.7 17.7 0.00 0.00 0.00 23 1023.0
20260508110648 13 27 8.0 24.1 0.00 0.00 0.00 24 1023.0
20260508105718 13 336 9.7 20.9 0.00 0.00 0.00 26 1022.9
20260508105003 12 342 16.1 25.7 0.00 0.00 0.00 25 1022.9
20260508103618 13 31 9.7 24.1 0.00 0.00 0.00 26 1023.0
20260508102601 12 4 11.3 20.9 0.00 0.00 0.00 26 1022.9
20260508101718 13 8 9.7 19.3 0.00 0.00 0.00 28 1023.0
20260508100738 13 359 3.2 9.7 0.00 0.00 0.00 29 1023.0
20260508095918 13 19 6.4 14.5 0.00 0.00 0.00 28 1023.0
20260508094911 12 18 9.7 16.1 0.00 0.00 0.00 30 1023.0
20260508093443 12 340 4.8 11.3 0.00 0.00 0.00 32 1022.8
20260508092913 12 8 11.3 22.5 0.00 0.00 0.00 32 1022.8
20260508091638 11 358 9.7 17.7 0.00 0.00 0.00 32 1022.8
20260508090718 12 338 3.2 9.7 0.00 0.00 0.00 34 1022.9
20260508090008 11 352 8.0 22.5 0.00 0.00 0.00 34 1022.8
20260508084523 11 332 16.1 27.4 0.00 0.00 0.00 33 1022.8
20260508083758 11 343 11.3 17.7 0.00 0.00 0.00 33 1022.9
20260508082658 11 358 9.7 19.3 0.00 0.00 0.00 35 1022.8
20260508081558 11 7 6.4 12.9 0.00 0.00 0.00 35 1022.8
20260508080823 11 339 12.9 24.1 0.00 0.00 0.00 35 1022.7
20260508075931 11 358 6.4 17.7 0.00 0.00 0.00 36 1022.7
20260508074758 10 0 11.3 22.5 0.00 0.00 0.00 36 1022.7
20260508073951 10 7 9.7 19.3 0.00 0.00 0.00 35 1022.5
20260508072708 10 332 9.7 16.1 0.00 0.00 0.00 39 1022.6
20260508071711 10 334 14.5 25.7 0.00 0.00 0.00 38 1022.4
20260508071201 10 334 12.9 22.5 0.00 0.00 0.00 39 1022.4
20260508065938 10 340 14.5 27.4 0.00 0.00 0.00 39 1022.3
20260508064548 9 339 11.3 19.3 0.00 0.00 0.00 41 1022.3
20260508063824 9 332 11.3 20.9 0.00 0.00 0.00 42 1022.2
20260508063141 8 342 9.7 14.5 0.00 0.00 0.00 43 1022.1
20260508062048 8 341 14.5 20.9 0.00 0.00 0.00 44 1021.9
20260508060722 8 340 11.3 17.7 0.00 0.00 0.00 46 1021.7
20260508055504 8 340 14.5 25.7 0.00 0.00 0.00 47 1021.6
20260508054548 8 329 6.4 12.9 0.00 0.00 0.00 49 1021.7
20260508053348 7 340 8.0 24.1 0.00 0.00 0.00 49 1021.4
20260508051909 7 334 8.0 14.5 0.00 0.00 0.00 52 1021.3
20260508051114 7 340 8.0 19.3 0.00 0.00 0.00 52 1021.2
20260508050013 6 334 11.3 19.3 0.00 0.00 0.00 54 1021.0
20260508044551 6 339 8.0 17.7 0.00 0.00 0.00 55 1020.9
20260508043628 6 341 12.9 19.3 0.00 0.00 0.00 55 1020.7
20260508043048 6 337 9.7 17.7 0.00 0.00 0.00 56 1020.7
20260508041659 5 336 9.7 17.7 0.00 0.00 0.00 57 1020.6
20260508040413 5 327 6.4 12.9 0.00 0.00 0.00 58 1020.5
20260508035139 5 344 8.0 12.9 0.00 0.00 0.00 58 1020.3
20260508033651 4 337 6.4 12.9 0.00 0.00 0.00 59 1020.1
20260508032644 4 344 6.4 12.9 0.00 0.00 0.00 59 1020.0
20260508031943 4 336 4.8 11.3 0.00 0.00 0.00 59 1020.0
20260508030521 4 327 8.0 12.9 0.00 0.00 0.00 59 1019.8
20260508025736 4 338 9.7 14.5 0.00 0.00 0.00 59 1019.7
20260508024443 3 325 8.0 14.5 0.00 0.00 0.00 60 1019.6
20260508023204 3 341 6.4 11.3 0.00 0.00 0.00 60 1019.3
20260508022306 3 329 6.4 11.3 0.00 0.00 0.00 59 1019.2
20260508021703 4 344 4.8 8.0 0.00 0.00 0.00 59 1019.1
20260508020528 4 318 6.4 11.3 0.00 0.00 0.00 59 1019.0
20260508015203 4 324 8.0 14.5 0.00 0.00 0.00 57 1018.8
20260508014231 5 326 9.7 17.7 0.00 0.00 0.00 57 1018.6
20260508012928 5 334 11.3 20.9 0.00 0.00 0.00 56 1018.4
20260508012418 5 332 9.7 17.7 0.00 0.00 0.00 56 1018.4
20260508011751 5 337 12.9 22.5 0.00 0.00 0.00 55 1018.3
20260508010306 5 339 11.3 19.3 0.00 0.00 0.00 54 1018.2
20260508005518 5 335 9.7 17.7 0.00 0.00 0.00 54 1018.1
20260508004706 5 341 12.9 20.9 0.00 0.00 0.00 54 1018.0
20260508003641 5 328 9.7 19.3 0.00 0.00 0.00 53 1017.9
20260508002721 5 339 11.3 19.3 0.00 0.00 0.00 53 1017.7
20260508001651 6 344 11.3 19.3 0.00 0.00 0.00 53 1017.7
20260508000733 6 331 9.7 14.5 0.00 0.00 0.00 52 1017.6
20260507235441 6 336 12.9 17.7 0.00 0.00 0.00 51 1017.4
20260507234429 6 335 9.7 16.1 0.00 0.00 0.00 51 1017.3
20260507233108 6 327 9.7 19.3 0.00 0.00 0.00 50 1017.1
20260507232006 6 339 11.3 17.7 0.00 0.00 0.00 50 1017.0
20260507231119 6 335 11.3 20.9 0.00 0.00 0.00 50 1016.8
20260507230118 6 341 11.3 20.9 0.00 0.00 0.00 49 1016.7
20260507225058 6 330 11.3 17.7 0.00 0.00 0.00 49 1016.5
20260507224318 6 323 9.7 20.9 0.00 0.00 0.00 48 1016.5
20260507223103 6 332 8.0 14.5 0.00 0.00 0.00 48 1016.4
20260507222551 6 332 9.7 17.7 0.00 0.00 0.00 47 1016.4
20260507221901 6 330 8.0 12.9 0.00 0.00 0.00 46 1016.3
20260507220741 7 325 9.7 17.7 0.00 0.00 0.00 45 1016.2
20260507215551 7 320 9.7 19.3 0.00 0.00 0.00 44 1016.1
20260507214814 7 331 9.7 14.5 0.00 0.00 0.00 44 1016.0
20260507213358 7 322 8.0 12.9 0.00 0.00 0.00 43 1015.8
20260507212751 7 329 8.0 12.9 0.00 0.00 0.00 43 1015.7
20260507211601 7 324 8.0 14.5 0.00 0.00 0.00 42 1015.5
20260507210551 7 329 6.4 12.9 0.00 0.00 0.00 42 1015.4
20260507205849 7 321 6.4 12.9 0.00 0.00 0.00 41 1015.3
20260507205141 7 331 8.0 12.9 0.00 0.00 0.00 41 1015.3
20260507204538 7 329 8.0 12.9 0.00 0.00 0.00 41 1015.2
20260507203633 7 321 6.4 11.3 0.00 0.00 0.00 41 1015.0
20260507202951 7 329 8.0 12.9 0.00 0.00 0.00 41 1014.9
20260507202036 7 328 6.4 12.9 0.00 0.00 0.00 41 1014.8
20260507201438 7 319 6.4 12.9 0.00 0.00 0.00 42 1014.8
20260507200103 7 324 4.8 8.0 0.00 0.00 0.00 43 1014.5
20260507194813 7 308 1.6 3.2 0.00 0.00 0.00 46 1014.4
20260507193858 7 310 1.6 3.2 0.00 0.00 0.00 43 1014.3
20260507192823 7 301 1.6 3.2 0.00 0.00 0.00 38 1014.2
20260507192221 8 279 1.6 4.8 0.00 0.00 0.00 37 1014.1
20260507191501 8 297 1.6 3.2 0.00 0.00 0.00 38 1014.0
20260507190209 8 280 1.6 4.8 0.00 0.00 0.00 35 1013.9
20260507185648 8 272 3.2 4.8 0.00 0.00 0.00 34 1013.9
20260507184741 8 226 1.6 4.8 0.00 0.00 0.00 36 1013.8
20260507183338 9 218 4.8 8.0 0.00 0.00 0.00 35 1013.7
20260507182031 9 220 3.2 9.7 0.00 0.00 0.00 35 1013.6
20260507181528 9 236 4.8 12.9 0.00 0.00 0.00 34 1013.5
20260507180732 10 222 4.8 9.7 0.00 0.00 0.00 35 1013.5
20260507175841 10 229 6.4 11.3 0.00 0.00 0.00 36 1013.4
20260507174709 10 217 3.2 8.0 0.00 0.00 0.00 38 1013.4
20260507173733 10 214 3.2 8.0 0.00 0.00 0.00 37 1013.4
20260507172351 10 203 4.8 8.0 0.00 0.00 0.00 36 1013.3
20260507171328 10 220 8.0 16.1 0.00 0.00 0.00 36 1013.3
20260507170633 10 210 8.0 14.5 0.00 0.00 0.00 36 1013.2
20260507170034 10 238 3.2 11.3 0.00 0.00 0.00 35 1013.3
20260507164859 10 213 11.3 16.1 0.00 0.00 0.00 37 1013.2
20260507163958 10 233 4.8 9.7 0.00 0.00 0.00 41 1013.3
20260507162751 9 211 4.8 12.9 0.00 0.00 0.00 43 1013.2
20260507161601 9 200 11.3 17.7 0.00 0.00 0.00 41 1013.0
20260507161022 9 208 8.0 19.3 0.00 0.00 0.00 43 1013.0
20260507160414 10 205 8.0 16.1 0.00 0.00 0.00 44 1013.0
20260507155351 10 208 4.8 9.7 0.00 0.00 0.00 42 1013.0
20260507153951 10 220 1.6 4.8 0.00 0.00 0.00 46 1012.9
20260507152759 10 183 1.6 6.4 0.00 0.00 0.00 47 1012.9
20260507151409 10 195 4.8 14.5 0.00 0.00 0.00 41 1012.9
20260507150606 11 181 3.2 9.7 0.00 0.00 0.00 43 1012.9
20260507145251 11 204 4.8 11.3 0.00 0.00 0.00 40 1012.9
20260507143849 11 196 3.2 12.9 0.00 0.00 0.00 39 1012.9
20260507142709 11 175 1.6 8.0 0.00 0.00 0.00 50 1012.9
20260507141242 12 181 1.6 6.4 0.00 0.00 0.00 48 1012.8
20260507140403 12 158 3.2 12.9 0.00 0.00 0.00 43 1012.7
20260507135536 12 192 4.8 11.3 0.00 0.00 0.00 26 1012.6
20260507135019 11 188 9.7 17.7 0.00 0.00 0.00 25 1012.6
20260507134032 12 187 3.2 9.7 0.00 0.00 0.00 26 1012.6
20260507132749 13 152 4.8 11.3 0.00 0.00 0.00 25 1012.6
20260507131729 13 190 3.2 8.0 0.00 0.00 0.00 25 1012.6
20260507130922 13 190 3.2 8.0 0.00 0.00 0.00 25 1012.6
20260507130259 13 176 3.2 8.0 0.00 0.00 0.00 25 1012.6
20260507125139 13 166 1.6 6.4 0.00 0.00 0.00 29 1012.5
20260507124034 12 200 3.2 11.3 0.00 0.00 0.00 29 1012.6
20260507123404 12 188 3.2 9.7 0.00 0.00 0.00 29 1012.6
20260507122536 12 160 1.6 4.8 0.00 0.00 0.00 35 1012.6
20260507121102 12 172 3.2 6.4 0.00 0.00 0.00 35 1012.6
20260507120429 12 167 3.2 8.0 0.00 0.00 0.00 37 1012.6